GW3011 Weather Reports


time (UTC)temp
C
wind
direction
speed
KPH
gust
KPH
rain 1hr
cm
rain 24hr
cm
rain mn
cm
humidity
%
barometer
mb
20260902191502 21 260 0.0 0.0 0.00 0.00 0.00 89 1019.3
20260902190956 21 310 0.0 0.0 0.00 0.00 0.00 84 1019.4
20260902190453 21 316 0.0 0.0 0.00 0.00 0.00 84 1019.1
20260902185948 21 289 0.0 0.0 0.00 0.00 0.00 84 1019.0
20260902185444 21 318 0.0 0.0 0.00 0.00 0.00 84 1019.0
20260902184938 21 255 0.0 0.0 0.00 0.00 0.00 84 1018.9
20260902184434 21 274 0.0 0.0 0.00 0.00 0.00 84 1019.0
20260902183929 21 322 0.0 0.0 0.00 0.00 0.00 84 1019.1
20260902183425 21 259 0.0 0.0 0.00 0.00 0.00 83 1019.0
20260902182921 22 358 0.0 0.0 0.00 0.00 0.00 83 1019.0
20260902182417 22 348 0.0 0.0 0.00 0.00 0.00 83 1019.1
20260902181913 22 348 0.0 0.0 0.00 0.00 0.00 82 1019.4
20260902181409 22 290 0.0 0.0 0.00 0.00 0.00 82 1019.2
20260902180903 22 264 0.0 0.0 0.00 0.00 0.00 81 1019.2
20260902180358 22 294 0.0 0.0 0.00 0.00 0.00 81 1019.2
20260902175853 22 20 0.0 0.0 0.00 0.00 0.00 81 1019.3
20260902175348 22 355 0.0 0.0 0.00 0.00 0.00 81 1019.5
20260902174844 22 216 0.0 0.0 0.00 0.00 0.00 81 1019.4
20260902174341 22 301 0.0 0.0 0.00 0.00 0.00 80 1019.5
20260902173831 22 332 0.0 0.0 0.00 0.00 0.00 79 1019.5
20260902173330 22 299 0.0 0.0 0.00 0.00 0.00 80 1019.6
20260902172825 22 313 0.0 0.0 0.00 0.00 0.00 80 1019.5
20260902172324 22 335 0.0 0.0 0.00 0.00 0.00 79 1019.4
20260902171814 22 303 0.0 0.0 0.00 0.00 0.00 79 1019.3
20260902171309 22 286 0.0 0.0 0.00 0.00 0.00 80 1019.4
20260902170806 22 293 0.0 0.0 0.00 0.00 0.00 81 1019.5
20260902170300 22 271 0.0 0.0 0.00 0.00 0.00 81 1019.7
20260902165755 22 293 0.0 0.0 0.00 0.00 0.00 81 1019.9
20260902165249 22 250 0.0 0.0 0.00 0.00 0.00 80 1020.0
20260902164744 22 286 0.0 0.0 0.00 0.00 0.00 80 1019.9
20260902164238 22 14 0.0 0.0 0.00 0.00 0.00 80 1020.0
20260902163733 21 291 0.0 0.0 0.00 0.00 0.00 80 1019.8
20260902163228 21 284 0.0 0.0 0.00 0.00 0.00 81 1019.9
20260902162726 21 314 0.0 0.0 0.00 0.00 0.00 79 1019.6
20260902162221 21 291 0.0 0.0 0.00 0.00 0.00 80 1019.7
20260902161716 22 311 0.0 0.0 0.00 0.00 0.00 78 1019.9
20260902161211 21 325 0.0 0.0 0.00 0.00 0.00 80 1019.8
20260902160708 21 248 0.0 0.0 0.00 0.00 0.00 79 1019.8
20260902160203 21 318 0.0 0.0 0.00 0.00 0.00 79 1019.7
20260902155701 21 328 0.0 0.0 0.00 0.00 0.00 79 1020.0
20260902155159 21 316 0.0 0.0 0.00 0.00 0.00 80 1020.0
20260902154655 21 290 0.0 0.0 0.00 0.00 0.00 80 1020.0
20260902154154 21 263 0.0 0.0 0.00 0.00 0.00 79 1020.0
20260902153649 21 292 0.0 0.0 0.00 0.00 0.00 79 1019.9
20260902153144 21 303 0.0 0.0 0.00 0.00 0.00 80 1019.9
20260902152640 21 343 0.0 0.0 0.00 0.00 0.00 79 1020.1
20260902152135 21 60 0.0 0.0 0.00 0.00 0.00 79 1020.0
20260902151630 21 317 0.0 0.0 0.00 0.00 0.00 79 1020.0
20260902151125 21 245 0.0 0.0 0.00 0.00 0.00 79 1020.1
20260902150621 21 305 0.0 0.0 0.00 0.00 0.00 79 1019.8
20260902150115 21 228 0.0 0.0 0.00 0.00 0.00 79 1019.7
20260902145610 21 288 0.0 0.0 0.00 0.00 0.00 80 1019.8
20260902145109 21 224 0.0 0.0 0.00 0.00 0.00 81 1020.0
20260902144606 20 0 0.0 0.0 0.00 0.00 0.00 82 1020.0
20260902144101 20 278 0.0 0.0 0.00 0.00 0.00 84 1020.3
20260902143556 20 286 0.0 0.0 0.00 0.00 0.00 83 1020.4
20260902143051 20 328 0.0 0.0 0.00 0.00 0.00 83 1020.4
20260902142547 20 304 0.0 0.0 0.00 0.00 0.00 84 1020.3
20260902142042 20 125 0.0 0.0 0.00 0.00 0.00 86 1020.1
20260902141541 20 320 0.0 0.0 0.00 0.00 0.00 85 1020.3
20260902141037 20 187 0.0 0.0 0.00 0.00 0.00 85 1020.1
20260902140532 20 243 0.0 0.0 0.00 0.00 0.00 85 1020.1
20260902140028 20 277 0.0 0.0 0.00 0.00 0.00 84 1019.8
20260902135526 20 309 0.0 0.0 0.00 0.00 0.00 85 1019.9
20260902135022 20 212 0.0 0.0 0.00 0.00 0.00 85 1020.2
20260902134517 20 131 0.0 0.0 0.00 0.00 0.00 87 1020.0
20260902134012 20 299 0.0 0.0 0.00 0.00 0.00 86 1019.8
20260902133507 20 248 0.0 0.0 0.00 0.00 0.00 87 1019.5
20260902133007 20 293 0.0 0.0 0.00 0.00 0.00 88 1019.4
20260902132502 20 285 0.0 0.0 0.00 0.00 0.00 89 1019.3
20260902131956 19 300 0.0 0.0 0.00 0.00 0.00 89 1019.8
20260902131453 20 318 0.0 0.0 0.00 0.00 0.00 89 1019.7
20260902130953 19 325 0.0 0.0 0.00 0.00 0.00 90 1019.7
20260902130448 19 171 0.0 0.0 0.00 0.00 0.00 90 1019.7
20260902125943 19 233 0.0 0.0 0.00 0.00 0.00 90 1019.4
20260902125440 19 273 0.0 0.0 0.00 0.00 0.00 91 1019.5
20260902124935 19 335 0.0 0.0 0.00 0.00 0.00 91 1019.6
20260902124431 19 263 0.0 0.0 0.00 0.00 0.00 91 1019.4
20260902123926 19 295 0.0 0.0 0.00 0.00 0.00 92 1019.4
20260902123423 18 268 0.0 0.0 0.00 0.00 0.00 93 1019.3
20260902122920 18 244 0.0 0.0 0.00 0.00 0.00 93 1019.2
20260902122417 18 288 0.0 0.0 0.00 0.00 0.00 93 1019.1
20260902121912 18 259 0.0 0.0 0.00 0.00 0.00 94 1019.4
20260902121407 18 189 0.0 0.0 0.00 0.00 0.00 95 1019.4
20260902120902 18 256 0.0 0.0 0.00 0.00 0.00 95 1019.2
20260902120358 18 326 0.0 0.0 0.00 0.00 0.00 95 1019.2
20260902115858 18 237 0.0 0.0 0.00 0.00 0.00 96 1019.3
20260902115354 18 338 0.0 0.0 0.00 0.00 0.00 97 1019.2
20260902114850 18 234 0.0 0.0 0.00 0.00 0.00 97 1019.4
20260902114345 18 203 0.0 0.0 0.00 0.00 0.00 97 1019.2
20260902113840 18 247 0.0 0.0 0.00 0.00 0.00 97 1019.3
20260902113336 18 273 0.0 0.0 0.00 0.00 0.00 97 1019.1
20260902112835 18 305 0.0 0.0 0.00 0.00 0.00 98 1019.1
20260902112332 18 276 0.0 0.0 0.00 0.00 0.00 98 1019.1
20260902111827 18 283 0.0 0.0 0.00 0.00 0.00 98 1019.2
20260902111324 19 292 0.0 0.0 0.00 0.00 0.00 98 1019.0
20260902110819 19 255 0.0 0.0 0.00 0.00 0.00 98 1018.7
20260902110315 19 278 0.0 0.0 0.00 0.00 0.00 98 1019.3
20260902105814 19 256 0.0 0.0 0.00 0.00 0.00 97 1019.1
20260902105309 19 202 0.0 0.0 0.00 0.00 0.00 97 1018.9
20260902104804 19 214 0.0 0.0 0.00 0.00 0.00 97 1018.9
20260902104301 19 286 0.0 0.0 0.00 0.00 0.00 98 1019.1
20260902103755 19 329 0.0 0.0 0.00 0.00 0.00 98 1018.9
20260902103254 19 284 0.0 0.0 0.00 0.00 0.00 98 1018.8
20260902102750 19 265 0.0 0.0 0.00 0.00 0.00 98 1018.9
20260902102248 18 289 0.0 0.0 0.00 0.00 0.00 98 1018.8
20260902101743 19 274 0.0 0.0 0.00 0.00 0.00 98 1018.5
20260902101238 18 175 0.0 0.0 0.00 0.00 0.00 98 1018.5
20260902100737 19 191 0.0 0.0 0.00 0.00 0.00 98 1018.6
20260902100232 18 253 0.0 0.0 0.00 0.00 0.00 98 1018.5
20260902095732 19 281 0.0 0.0 0.00 0.00 0.00 98 1018.5
20260902095226 19 283 0.0 0.0 0.00 0.00 0.00 98 1018.2
20260902094721 19 270 0.0 0.0 0.00 0.00 0.00 98 1018.2
20260902094217 19 197 0.0 0.0 0.00 0.00 0.00 98 1018.3
20260902093715 19 253 0.0 0.0 0.00 0.00 0.00 98 1018.3
20260902093211 19 204 0.0 0.0 0.00 0.00 0.00 98 1018.4
20260902092706 19 193 0.0 0.0 0.00 0.00 0.00 98 1018.4
20260902092201 19 302 0.0 0.0 0.00 0.00 0.00 98 1018.3
20260902091701 19 315 0.0 0.0 0.00 0.00 0.00 98 1018.3
20260902091158 19 193 0.0 0.0 0.00 0.00 0.00 99 1018.4
20260902090654 19 163 0.0 0.0 0.00 0.00 0.00 98 1018.1
20260902090152 19 245 0.0 0.0 0.00 0.00 0.00 98 1018.3
20260902085647 19 281 0.0 0.0 0.00 0.00 0.00 98 1018.2
20260902085142 19 191 0.0 0.0 0.00 0.00 0.00 98 1018.0
20260902084638 19 151 0.0 0.0 0.00 0.00 0.00 97 1018.3
20260902084134 19 168 0.0 0.0 0.00 0.00 0.00 96 1018.0
20260902083629 19 196 0.0 0.0 0.00 0.00 0.00 96 1018.1
20260902083128 19 145 0.0 0.0 0.00 0.00 0.00 96 1018.2
20260902082624 19 299 0.0 0.0 0.00 0.00 0.00 95 1018.1
20260902082120 19 288 0.0 0.0 0.00 0.00 0.00 95 1018.3
20260902081617 19 211 0.0 0.0 0.00 0.00 0.00 95 1017.8
20260902081116 19 275 0.0 0.0 0.00 0.00 0.00 95 1018.0
20260902080611 19 259 0.0 0.0 0.00 0.00 0.00 95 1017.9
20260902080108 19 286 0.0 0.0 0.00 0.00 0.00 95 1018.0
20260902075608 19 305 0.0 0.0 0.00 0.00 0.00 95 1017.9
20260902075104 19 270 0.0 0.0 0.00 0.00 0.00 96 1018.0
20260902074559 19 260 0.0 0.0 0.00 0.00 0.00 95 1017.8
20260902074054 19 163 0.0 0.0 0.00 0.00 0.00 96 1018.1
20260902073549 19 294 0.0 0.0 0.00 0.00 0.00 96 1017.7
20260902073045 19 327 0.0 0.0 0.00 0.00 0.00 96 1017.6
20260902072541 19 212 0.0 0.0 0.00 0.00 0.00 96 1017.7
20260902072038 19 172 0.0 0.0 0.00 0.00 0.00 96 1017.3
20260902071537 19 161 0.0 0.0 0.00 0.00 0.00 96 1017.5
20260902071034 19 288 0.0 0.0 0.00 0.00 0.00 96 1017.5
20260902070529 19 317 0.0 0.0 0.00 0.00 0.00 96 1017.6
20260902070023 19 125 0.0 0.0 0.00 0.00 0.00 96 1017.4
20260902065517 19 267 0.0 0.0 0.00 0.00 0.00 96 1017.5
20260902065013 19 286 0.0 0.0 0.00 0.00 0.00 96 1017.4
20260902064509 19 232 0.0 0.0 0.00 0.00 0.00 96 1017.3
20260902064004 19 326 0.0 0.0 0.00 0.00 0.00 96 1017.5
20260902063503 19 276 0.0 0.0 0.00 0.00 0.00 96 1017.6
20260902062959 19 158 0.0 0.0 0.00 0.00 0.00 96 1017.5
20260902062457 19 214 0.0 0.0 0.00 0.00 0.00 96 1017.6
20260902061952 19 213 0.0 0.0 0.00 0.00 0.00 96 1017.7
20260902061442 19 333 0.0 0.0 0.00 0.00 0.00 96 1017.7
20260902060938 19 283 0.0 0.0 0.00 0.00 0.00 97 1017.8
20260902060434 19 247 0.0 0.0 0.00 0.00 0.00 97 1017.7
20260902055930 19 322 0.0 0.0 0.00 0.00 0.00 96 1017.7
20260902055426 19 161 0.0 0.0 0.00 0.00 0.00 97 1018.0
20260902054921 19 226 0.0 0.0 0.00 0.00 0.00 96 1017.9
20260902054416 19 286 0.0 0.0 0.00 0.00 0.00 96 1017.9
20260902053911 19 250 0.0 0.0 0.00 0.00 0.00 96 1017.7
20260902053407 19 296 0.0 0.0 0.00 0.00 0.00 96 1018.0
20260902052905 20 272 0.0 0.0 0.00 0.00 0.00 96 1018.0
20260902052401 20 170 0.0 0.0 0.00 0.00 0.00 96 1018.0
20260902051856 20 182 0.0 0.0 0.00 0.00 0.00 96 1017.9
20260902051356 20 169 0.0 0.0 0.00 0.00 0.00 97 1018.0
20260902050850 20 269 0.0 0.0 0.00 0.00 0.00 97 1017.9
20260902050349 20 301 0.0 0.0 0.00 0.00 0.00 97 1017.9
20260902045844 20 285 0.0 0.0 0.00 0.00 0.00 97 1017.8
20260902045340 20 256 0.0 0.0 0.00 0.00 0.00 98 1017.6
20260902044836 20 334 0.0 0.0 0.00 0.00 0.00 97 1017.5
20260902044331 20 233 0.0 0.0 0.00 0.00 0.00 98 1017.7
20260902043827 20 285 0.0 0.0 0.00 0.00 0.00 98 1017.6
20260902043321 20 296 0.0 0.0 0.00 0.00 0.00 98 1017.6
20260902042821 20 234 0.0 0.0 0.00 0.00 0.00 98 1017.4
20260902042316 20 172 0.0 0.0 0.00 0.00 0.00 98 1017.4
20260902041811 20 225 0.0 0.0 0.00 0.00 0.00 99 1017.4
20260902041311 20 290 0.0 0.0 0.00 0.00 0.00 99 1017.5
20260902040809 20 127 0.0 0.0 0.00 0.00 0.00 99 1017.5
20260902040305 20 264 0.0 0.0 0.00 0.00 0.00 99 1017.5
20260902035804 20 293 0.0 0.0 0.00 0.00 0.00 99 1017.2
20260902035300 20 217 0.0 0.0 0.00 0.00 0.00 99 1017.0
20260902034758 19 327 0.0 0.0 0.00 0.00 0.00 99 1017.0
20260902034254 19 297 0.0 0.0 0.00 0.00 0.00 99 1016.7
20260902033752 19 185 0.0 0.0 0.00 0.00 0.00 99 1016.7
20260902033247 19 281 0.0 0.0 0.00 0.00 0.00 99 1016.5
20260902032745 19 287 0.0 0.0 0.00 0.00 0.00 99 1016.4
20260902032241 19 288 0.0 0.0 0.00 0.00 0.00 99 1016.3
20260902031740 19 336 0.0 0.0 0.00 0.00 0.00 99 1016.4
20260902031236 19 283 0.0 0.0 0.00 0.00 0.00 99 1016.3
20260902030731 19 20 0.0 0.0 0.00 0.00 0.00 99 1016.5
20260902030226 19 229 0.0 0.0 0.00 0.00 0.00 99 1016.6
20260902025725 19 275 0.0 0.0 0.00 0.74 0.74 99 1016.4
20260902025220 19 290 0.0 0.0 0.00 0.74 0.74 99 1016.5
20260902024715 19 301 0.0 0.0 0.00 0.74 0.74 99 1016.6
20260902024211 19 269 0.0 0.0 0.00 0.74 0.74 99 1016.6
20260902023706 19 262 0.0 0.0 0.00 0.74 0.74 99 1016.4
20260902023201 19 127 0.0 0.0 0.00 0.74 0.74 99 1016.5
20260902022701 19 251 0.0 0.0 0.00 0.74 0.74 99 1016.2
20260902022156 19 324 0.0 0.0 0.00 0.74 0.74 99 1016.4
20260902021652 19 312 0.0 0.0 0.00 0.74 0.74 99 1016.2
20260902021146 19 254 0.0 0.0 0.00 0.74 0.74 99 1015.8
20260902020642 19 248 0.0 0.0 0.00 0.74 0.74 99 1015.8
20260902020138 19 243 0.0 0.0 0.00 0.74 0.74 99 1015.8
20260902015633 19 248 0.0 0.0 0.00 0.74 0.74 99 1015.9
20260902015130 20 266 0.0 0.0 0.00 0.74 0.74 99 1015.4
20260902014625 20 294 0.0 0.0 0.00 0.74 0.74 99 1015.5
20260902014120 20 245 0.0 0.0 0.00 0.74 0.74 99 1015.3
20260902013620 20 278 0.0 0.0 0.00 0.74 0.74 99 1015.3
20260902013115 20 255 0.0 0.0 0.00 0.74 0.74 99 1015.2
20260902012611 20 241 0.0 0.0 0.00 0.74 0.74 99 1015.1
20260902012106 20 299 0.0 0.0 0.00 0.74 0.74 99 1014.9
20260902011602 20 162 0.0 0.0 0.00 0.74 0.74 99 1015.0
20260902011101 21 258 0.0 0.0 0.00 0.74 0.74 99 1014.6
20260902010601 21 230 0.0 0.0 0.00 0.74 0.74 99 1014.5
20260902010057 21 314 0.0 0.0 0.00 0.74 0.74 99 1014.4
20260902005554 21 180 0.0 0.0 0.00 0.74 0.74 99 1014.5
20260902005051 21 293 0.0 0.0 0.00 0.74 0.74 99 1014.4
20260902004550 21 253 0.0 0.0 0.00 0.74 0.74 99 1014.6
20260902004045 21 176 0.0 0.0 0.00 0.74 0.74 99 1014.5
20260902003541 21 182 0.0 0.0 0.00 0.74 0.74 99 1014.6
20260902003036 21 316 0.0 0.0 0.00 0.74 0.74 99 1014.3
20260902002532 21 206 0.0 0.0 0.00 0.74 0.74 99 1014.3
20260902002026 22 256 0.0 0.0 0.00 0.74 0.74 99 1014.4
20260902001521 22 207 0.0 0.0 0.00 0.74 0.74 99 1014.6
20260902001016 22 282 0.0 0.0 0.00 0.74 0.74 99 1014.6
20260902000511 22 215 0.0 0.0 0.00 0.74 0.74 99 1014.4
20260902000007 22 223 0.0 0.0 0.00 0.74 0.74 99 1014.3
20260901235501 23 302 0.0 0.0 0.00 0.74 0.74 99 1014.3
20260901234956 23 84 0.0 0.0 0.13 0.74 0.74 99 1014.3
20260901234450 23 63 0.0 0.0 0.13 0.74 0.74 99 1014.3
20260901233950 23 31 0.0 0.0 0.00 0.71 0.71 99 1014.2
20260901233445 23 97 0.0 0.0 0.00 0.71 0.71 99 1014.3
20260901232942 23 282 0.0 0.0 0.00 0.71 0.71 99 1013.9
20260901232436 23 272 0.0 0.0 0.18 0.71 0.71 99 1013.7
20260901231931 23 279 0.0 0.0 0.18 0.71 0.71 99 1014.4
20260901231428 23 294 0.0 0.0 0.00 0.69 0.69 99 1014.0
20260901230924 23 20 0.0 0.0 0.13 0.69 0.69 99 1014.1
20260901230423 23 51 0.0 0.0 0.13 0.69 0.69 99 1013.5
20260901225918 23 33 0.0 0.0 0.00 0.66 0.66 99 1013.8
20260901225413 23 232 0.0 0.0 0.00 0.66 0.66 99 1013.9
20260901224908 23 306 0.0 0.0 0.00 0.66 0.66 99 1013.9
20260901224404 23 101 0.0 0.0 0.00 0.66 0.66 99 1013.9
20260901223900 23 73 0.0 0.0 0.00 0.66 0.66 99 1014.0
20260901223355 23 93 0.0 0.0 0.18 0.66 0.66 99 1013.5
20260901222851 23 75 0.0 0.0 1.55 0.66 0.66 99 1013.4
20260901222347 23 29 0.0 0.0 2.46 0.64 0.64 99 1013.3
20260901221843 23 118 0.0 0.0 1.37 0.41 0.41 99 1013.6
20260901221338 24 22 0.0 0.0 0.48 0.25 0.25 96 1013.5
20260901220838 25 278 0.0 0.0 0.00 0.18 0.18 93 1013.3
20260901220337 25 9 0.0 0.0 0.00 0.18 0.18 91 1013.3
20260901215836 25 273 0.0 0.0 0.00 0.18 0.18 90 1013.3
20260901215335 25 347 0.0 0.0 0.00 0.18 0.18 89 1013.4
20260901214834 25 39 0.0 0.0 0.00 0.18 0.18 89 1013.4
20260901214333 25 282 0.0 0.0 0.00 0.18 0.18 89 1013.2
20260901213828 25 331 0.0 0.0 0.00 0.18 0.18 89 1013.5
20260901213328 26 285 0.0 0.0 0.00 0.18 0.18 88 1013.1
20260901212822 26 337 0.0 0.0 0.00 0.18 0.18 88 1013.4
20260901212318 26 264 0.0 0.0 0.00 0.18 0.18 87 1013.3
20260901211814 26 334 0.0 0.0 0.00 0.18 0.18 86 1013.0
20260901211310 27 272 0.0 0.0 0.00 0.18 0.18 85 1013.5
20260901210805 27 357 0.0 0.0 0.00 0.18 0.18 84 1013.2
20260901210301 27 344 0.0 0.0 0.00 0.18 0.18 84 1013.2
20260901205757 27 268 0.0 0.0 0.00 0.18 0.18 84 1013.3
20260901205256 27 338 0.0 0.0 0.00 0.18 0.18 83 1013.1
20260901204752 28 226 0.0 0.0 0.00 0.18 0.18 82 1013.1
20260901204248 27 278 0.0 0.0 0.00 0.18 0.18 83 1013.1
20260901203742 28 208 0.0 0.0 0.00 0.18 0.18 83 1013.2
20260901203237 27 4 0.0 0.0 0.00 0.18 0.18 83 1013.3
20260901202736 28 250 0.0 0.0 0.00 0.18 0.18 83 1013.2
20260901202232 28 226 0.0 0.0 0.00 0.18 0.18 82 1013.3
20260901201727 28 37 0.0 0.0 0.00 0.18 0.18 80 1013.3
20260901201226 28 136 0.0 0.0 0.00 0.18 0.18 81 1013.3
20260901200720 27 87 0.0 0.0 0.00 0.18 0.18 83 1013.5
20260901200216 28 80 0.0 0.0 0.00 0.18 0.18 82 1013.3
20260901195713 28 18 0.0 0.0 0.00 0.18 0.18 80 1013.2
20260901195207 28 324 0.0 0.0 0.00 0.18 0.18 82 1013.2
20260901194704 28 313 0.0 0.0 0.00 0.18 0.18 81 1013.1
20260901194153 27 76 0.0 0.0 0.00 0.18 0.18 82 1013.2
20260901193648 27 118 0.0 0.0 0.00 0.18 0.18 82 1013.5
20260901193142 28 96 0.0 0.0 0.00 0.18 0.18 80 1013.4
20260901192637 28 111 0.0 0.0 0.00 0.18 0.18 79 1013.4
20260901192132 27 132 0.0 0.0 0.00 0.18 0.18 81 1013.4